This is the latest recevied weather packets stored in our database for station/object KC4JES. If no packets are shown the sender has not sent any weather packets the latest 10 day(s).
| Time | Temp. | Humidity | Pressure | Rain* | Wind** | Luminosity | Snow |
|---|---|---|---|---|---|---|---|
| 1777767816 | 18.89° C | 92% | 1013 hPa | 0 mm | - | 0 W/m² | - |
| 1777767513 | 18.89° C | 91% | 1012.9 hPa | 0 mm | - | 0 W/m² | - |
| 1777767209 | 18.89° C | 90% | 1012.7 hPa | 0 mm | - | 0 W/m² | - |
| 1777766907 | 19.44° C | 90% | 1012.6 hPa | 0 mm | - | 0 W/m² | - |
| 1777766604 | 19.44° C | 91% | 1012.5 hPa | 0 mm | - | 0 W/m² | - |
| 1777766301 | 19.44° C | 90% | 1012.4 hPa | 0 mm | - | 0 W/m² | - |
| 1777765998 | 19.44° C | 90% | 1012.1 hPa | 0 mm | - | 1 W/m² | - |
| 1777765695 | 20° C | 89% | 1012.1 hPa | 0 mm | - | 1 W/m² | - |
| 1777765392 | 20° C | 88% | 1011.6 hPa | 0 mm | - | 1 W/m² | - |
| 1777765088 | 20.56° C | 88% | 1011.7 hPa | 0 mm | - | 1 W/m² | - |
| 1777764784 | 20.56° C | 87% | 1011.5 hPa | 0 mm | - | 1 W/m² | - |
| 1777764481 | 20.56° C | 87% | 1011.5 hPa | 0 mm | - | 3 W/m² | - |
| 1777764178 | 21.11° C | 87% | 1011.4 hPa | 0 mm | - | 6 W/m² | - |
| 1777763874 | 21.11° C | 86% | 1011.3 hPa | 0 mm | - | 14 W/m² | - |
| 1777763572 | 21.11° C | 87% | 1011.5 hPa | 0 mm | - | 31 W/m² | - |
| 1777763270 | 21.11° C | 86% | 1011.3 hPa | 0 mm | - | 35 W/m² | - |
| 1777762968 | 21.11° C | 86% | 1011.2 hPa | 0 mm | - | 52 W/m² | - |
| 1777762665 | 21.11° C | 87% | 1011.3 hPa | 0 mm | - | 27 W/m² | - |
| 1777762362 | 21.11° C | 87% | 1010.9 hPa | 0 mm | - | 24 W/m² | - |
| 1777762058 | 21.11° C | 88% | 1011 hPa | 0 mm | - | 23 W/m² | - |
| 1777761754 | 21.11° C | 88% | 1010.9 hPa | 0 mm | - | 46 W/m² | - |
| 1777761452 | 21.11° C | 88% | 1010.8 hPa | 0 mm | - | 51 W/m² | - |
| 1777761150 | 21.11° C | 89% | 1010.8 hPa | 0 mm | - | 47 W/m² | - |
| 1777760847 | 21.11° C | 89% | 1010.6 hPa | 0 mm | - | 36 W/m² | - |
| 1777760544 | 21.11° C | 89% | 1010.4 hPa | 0 mm | - | 39 W/m² | - |
* Rain latest hour (hover to see other rain measurements)
** Current wind speed in m/s (hover to see current wind gust speed)